This demonstration page uses our WeatherBlox Daily Observations layout. Learn more.

Left ArrowRight Arrow

Hourly Observations for August 23, 2016

Temp ( °F °C ) Dew Point ( °F °C ) Humidity (%) Winds ( mph kmh ) Pressure ( in mb ) Visibility ( mi km ) Precip ( " mm )
12:14 am 00:14 Clear 61 16 57 14 88 88 S 3 6 30.21 1023 10 16.0934 N/A
12:34 am 00:34 Clear 59 15 57 14 94 94 S 3 6 30.21 1023 10 16.0934 N/A
12:55 am 00:55 Clear 59 15 57 14 94 94 Calm 30.21 1023 10 16.0934 N/A
1:14 am 01:14 Clear 57 14 55 13 94 94 Calm 30.21 1023 10 16.0934 N/A
1:34 am 01:34 Clear 57 14 55 13 94 94 Calm 30.21 1023 10 16.0934 N/A
1:55 am 01:55 Clear 59 15 55 13 88 88 SSE 3 6 30.21 1023 10 16.0934 N/A
2:14 am 02:14 Clear 57 14 55 13 94 94 SSE 3 6 30.21 1023 10 16.0934 N/A
2:34 am 02:34 Clear 57 14 55 13 94 94 Calm 30.21 1023 10 16.0934 N/A
2:55 am 02:55 Clear 57 14 55 13 94 94 Calm 30.21 1023 10 16.0934 N/A
3:14 am 03:14 Clear 57 14 55 13 94 94 Calm 30.21 1023 10 16.0934 N/A
3:34 am 03:34 Clear 55 13 55 13 100 100 Calm 30.24 1024 10 16.0934 N/A
3:55 am 03:55 Clear 57 14 55 13 94 94 Calm 30.21 1023 10 16.0934 N/A
4:14 am 04:14 Clear 55 13 55 13 100 100 Calm 30.24 1024 10 16.0934 N/A
4:34 am 04:34 Clear 55 13 55 13 100 100 Calm 30.24 1024 10 16.0934 N/A
4:55 am 04:55 Clear 55 13 54 12 94 94 Calm 30.24 1024 10 16.0934 N/A
5:14 am 05:14 Clear 54 12 54 12 100 100 Calm 30.24 1024 10 16.0934 N/A
5:34 am 05:34 Clear 55 13 54 12 94 94 Calm 30.24 1024 10 16.0934 N/A
5:54 am 05:54 Clear 55 13 54 12 94 94 Calm 30.27 1025 10 16.0934 N/A
6:14 am 06:14 Clear 54 12 54 12 100 100 Calm 30.24 1024 10 16.0934 N/A
6:34 am 06:34 Clear 54 12 54 12 100 100 Calm 30.24 1024 10 16.0934 N/A
6:54 am 06:54 Clear 54 12 54 12 100 100 Calm 30.27 1025 10 16.0934 N/A
7:14 am 07:14 Sunny 54 12 54 12 100 100 Calm 30.27 1025 10 16.0934 N/A
7:34 am 07:34 Partly Cloudy 55 13 54 12 94 94 Calm 30.27 1025 10 16.0934 N/A
7:54 am 07:54 Partly Cloudy 55 13 54 12 94 94 SE 3 6 30.27 1025 10 16.0934 N/A
8:14 am 08:14 Mostly Cloudy 59 15 57 14 94 94 SE 3 6 30.24 1024 10 16.0934 N/A
8:34 am 08:34 Partly Cloudy 61 16 57 14 88 88 SSE 5 7 30.24 1024 10 16.0934 N/A
8:54 am 08:54 Partly Cloudy 63 17 59 15 88 88 SE 5 7 30.24 1024 10 16.0934 N/A
9:14 am 09:14 Partly Cloudy 66 19 61 16 83 83 SE 3 6 30.24 1024 10 16.0934 N/A
9:34 am 09:34 Partly Cloudy 68 20 61 16 78 78 SSE 6 9 30.27 1025 10 16.0934 N/A
9:54 am 09:54 Partly Cloudy 68 20 61 16 78 78 S 7 11 30.27 1025 10 16.0934 N/A
10:14 am 10:14 Partly Cloudy 70 21 61 16 73 73 S 7 11 30.27 1025 10 16.0934 N/A
10:34 am 10:34 Sunny 72 22 61 16 69 69 S 6 9 30.27 1025 10 16.0934 N/A
10:54 am 10:54 Sunny 73 23 61 16 65 65 S 6 9 30.27 1025 10 16.0934 N/A
11:14 am 11:14 Sunny 73 23 63 17 69 69 SSW 9 15 30.27 1025 10 16.0934 N/A
11:34 am 11:34 Sunny 75 24 61 16 61 61 S 5 7 30.24 1024 10 16.0934 N/A
11:54 am 11:54 Sunny 75 24 63 17 65 65 S 6 9 30.24 1024 10 16.0934 N/A
12:14 pm 12:14 Sunny 73 23 61 16 65 65 SSW 8 13 30.27 1025 10 16.0934 N/A
12:34 pm 12:34 Partly Cloudy 77 25 61 16 57 57 S 9 15 30.24 1024 10 16.0934 N/A
12:54 pm 12:54 Mostly Cloudy 77 25 61 16 57 57 SSE 8 13 30.24 1024 10 16.0934 N/A
1:14 pm 13:14 Mostly Cloudy 77 25 61 16 57 57 SSW 6 9 30.21 1023 10 16.0934 N/A
1:34 pm 13:34 Partly Cloudy 77 25 61 16 57 57 SSW 6 9 30.21 1023 10 16.0934 N/A
1:54 pm 13:54 Partly Cloudy 77 25 61 16 57 57 S 6 9 30.21 1023 10 16.0934 N/A
2:14 pm 14:14 Mostly Cloudy 77 25 61 16 57 57 S 8 13 30.21 1023 10 16.0934 N/A
2:34 pm 14:34 Partly Cloudy 79 26 61 16 54 54 S 7 11 30.18 1022 10 16.0934 N/A
2:54 pm 14:54 Partly Cloudy 79 26 63 17 58 58 S 10 17 30.18 1022 10 16.0934 N/A
3:14 pm 15:14 Partly Cloudy 77 25 61 16 57 57 SSE 12 19 30.18 1022 10 16.0934 N/A
3:34 pm 15:34 Mostly Cloudy 79 26 63 17 58 58 SSW 9 15 30.18 1022 10 16.0934 N/A
3:54 pm 15:54 Partly Cloudy 77 25 63 17 61 61 S 9 15 30.18 1022 10 16.0934 N/A
4:14 pm 16:14 Partly Cloudy 79 26 63 17 58 58 SSW 7 11 30.18 1022 10 16.0934 N/A
4:34 pm 16:34 Partly Cloudy 77 25 63 17 61 61 SE 8 13 30.18 1022 10 16.0934 N/A
4:54 pm 16:54 Mostly Cloudy 79 26 63 17 58 58 S 8 13 30.18 1022 10 16.0934 N/A
5:14 pm 17:14 Partly Cloudy 77 25 63 17 61 61 S 5 7 30.15 1021 10 16.0934 N/A
5:34 pm 17:34 Sunny 77 25 63 17 61 61 S 5 7 30.15 1021 10 16.0934 N/A
5:54 pm 17:54 Sunny 77 25 63 17 61 61 S 6 9 30.15 1021 10 16.0934 N/A
6:14 pm 18:14 Sunny 75 24 63 17 65 65 S 6 9 30.15 1021 10 16.0934 N/A
6:34 pm 18:34 Sunny 75 24 63 17 65 65 S 3 6 30.15 1021 10 16.0934 N/A
6:54 pm 18:54 Sunny 75 24 63 17 65 65 SSE 5 7 30.15 1021 10 16.0934 N/A
7:14 pm 19:14 Partly Cloudy 73 23 63 17 69 69 S 3 6 30.15 1021 10 16.0934 N/A
7:35 pm 19:35 Partly Cloudy 72 22 64 18 78 78 SSE 3 6 30.18 1022 10 16.0934 N/A
7:54 pm 19:54 Sunny 72 22 64 18 78 78 SE 3 6 30.18 1022 10 16.0934 N/A
8:14 pm 20:14 Sunny 70 21 63 17 78 78 SSE 5 7 30.18 1022 10 16.0934 N/A
8:34 pm 20:34 Clear 68 20 63 17 83 83 SE 3 6 30.18 1022 10 16.0934 N/A
8:54 pm 20:54 Clear 68 20 63 17 83 83 SSE 3 6 30.18 1022 10 16.0934 N/A
9:14 pm 21:14 Clear 66 19 63 17 88 88 SE 3 6 30.18 1022 10 16.0934 N/A
9:34 pm 21:34 Clear 66 19 63 17 88 88 SE 3 6 30.18 1022 10 16.0934 N/A
9:54 pm 21:54 Clear 66 19 63 17 88 88 SE 3 6 30.18 1022 10 16.0934 N/A
10:14 pm 22:14 Clear 66 19 63 17 88 88 SE 5 7 30.18 1022 10 16.0934 N/A
10:34 pm 22:34 Clear 66 19 63 17 88 88 SE 5 7 30.18 1022 10 16.0934 N/A
10:54 pm 22:54 Clear 66 19 63 17 88 88 SSE 3 6 30.18 1022 10 16.0934 N/A
11:14 pm 23:14 Clear 66 19 63 17 88 88 SE 3 6 30.18 1022 10 16.0934 N/A
11:34 pm 23:34 Clear 66 19 63 17 88 88 SSE 3 6 30.18 1022 10 16.0934 N/A
11:54 pm 23:54 Clear 66 19 63 17 88 88 SSE 3 6 30.18 1022 10 16.0934 N/A

Powered by AerisWeather